User: anonymous
Location: Montr�al
(45.5000°N, 73.5830°W)
Time: 12:11:42
(UTC-04:00)
Language:

Cosmos 2369 - Orbit

View from above orbital plane
View from above orbital plane
View from above satellite
View from above satellite

Ground track
Ground track

The orbit data is extracted from the following two-line orbital elements,

1 26069U 00006A   14241.36699808 -.00000293  00000-0 -13086-3 0  3261
2 26069 070.9983 341.5949 0013314 328.5955 087.1576 14.13242917751613
Epoch (UTC): 29 August 2014 08:48:28
Eccentricity: 0.0013314
inclination: 70.9983°
perigee height: 838 km
apogee height: 858 km
right ascension of ascending node: 341.5949°
argument of perigee: 328.5955°
revolutions per day: 14.13242917
mean anomaly at epoch: 87.1576°
orbit number at epoch: 75161

The dashed part of the orbit path shows where the satellite is in the earth's shadow,  

DLR